Location: Unspecified
(0.0000°N, 0.0000°E)
Time: 14:01:33
(UTC+01:00)

Ariane H10 - Pass Details

Date: 25 November 2017
Orbit: 391 x 35079 km, 4.3° (Epoch: 15 December)

Event Time Altitude Azimuth Distance (km) Brightness Sun altitude
Rises 20:13:57 0° 265° (W) 8,089 10.1 -20.2°
Reaches altitude 10° 20:17:20 10° 264° (W) 8,103 9.8 -21.0°
Maximum altitude 22:03:52 79° 268° (W) 24,804 10.8 -45.0°
Drops below altitude 10° 06:02:13 10° 86° (E) 3,981 8.3 -10.5°
Sets 06:03:54 0° 87° (E) 4,429 8.8 -10.1°
